Weather History for Macon, GA

Change the Weather History Date:

Saturday, December 29, 2012

  Actual Average Record
Temperature  
Mean Temperature 44 °F 46 °F  
Max Temperature 50 °F 57 °F 80 °F (1984)
Min Temperature 38 °F 35 °F 17 °F (1925)
Degree Days  
Heating Degree Days 21 19  
Month to date heating degree days 343 493  
Since 1 July heating degree days 784 888  
Cooling Degree Days 0 0  
Month to date cooling degree days 0 0  
Year to date cooling degree days 2297 2163  
Growing Degree Days 0 (Base 50)    
Moisture  
Dew Point 38 °F    
Average Humidity 80    
Maximum Humidity 100    
Minimum Humidity 59    
Precipitation  
Precipitation 0.35 in 0.13 in 2.16 in (1970)
Month to date precipitation 4.86 3.79  
Year to date precipitation 32.41 45.43  
Snow  
Snow 0.00 in 0.00 in 0.00 in (2001)
Month to date snowfall 0.0 0.1  
Since 1 July snowfall 0.0 0.1  
Snow Depth -    
Sea Level Pressure  
Sea Level Pressure 29.95 in    
Wind  
Wind Speed 11 mph (NW)    
Max Wind Speed 23 mph    
Max Gust Speed 33 mph    
Visibility 8 miles    
Events Rain    
T = Trace of Precipitation, MM = Missing Value Source: NWS Daily Summary

Daily Weather History Graph

Daily Weather History Graph

Search for Another Location

Airport:

Trip Planner

Search our weather history database for the weather conditions in past years. The results will help you decide how hot, cold, wet, or windy it might be!

Date:

Astronomy

Dec. 29, 2012 Rise Set
Actual Time 7:36 AM EST 5:37 PM EST
Civil Twilight 7:08 AM EST 6:05 PM EST
Nautical Twilight 6:38 AM EST 6:35 PM EST
Astronomical Twilight 6:08 AM EST 7:05 PM EST
Moon 7:04 PM EST (12/29) 8:13 AM EST (12/29)
Length of Visible Light 10h 56m
Length of Day
10h 01m
Full, 98% of the Moon is Illuminated
Dec 29
Full
Jan 4
Last Quarter
Jan 11
New
Jan 18
First Quarter
Jan 26
Full

Hourly Weather History & Observations

Time (EST) Temp. Windchill Dew Point Humidity Pressure Visibility Wind Dir Wind Speed Gust Speed Precip Events Conditions
12:53 AM 45.0 °F 43.5 °F 43.0 °F 93% 29.83 in 5.0 mi East 3.5 mph - 0.04 in Rain Light Rain
1:53 AM 45.0 °F 42.6 °F 44.1 °F 97% 29.79 in 4.0 mi ENE 4.6 mph - 0.09 in Rain Light Rain
2:03 AM 44.6 °F 40.2 °F 44.6 °F 100% 29.81 in 3.0 mi North 8.1 mph - 0.02 in Rain Light Rain
2:28 AM 44.6 °F 38.4 °F 44.6 °F 100% 29.85 in 2.5 mi NNW 12.7 mph - 0.08 in Rain Rain
2:53 AM 44.1 °F 39.5 °F 44.1 °F 100% 29.84 in 4.0 mi North 8.1 mph - 0.17 in Rain Light Rain
3:23 AM 44.6 °F 41.4 °F 44.6 °F 100% 29.81 in 5.0 mi ENE 5.8 mph - 0.05 in Rain Light Rain
3:53 AM 44.1 °F 40.8 °F 44.1 °F 100% 29.78 in 7.0 mi Variable 5.8 mph - 0.05 in   Overcast
4:53 AM 45.0 °F 42.6 °F 44.1 °F 97% 29.79 in 8.0 mi WNW 4.6 mph - 0.00 in   Overcast
5:25 AM 44.6 °F - 44.6 °F 100% 29.79 in 8.0 mi Calm Calm - N/A   Overcast
5:53 AM 45.0 °F 42.6 °F 44.1 °F 97% 29.81 in 6.0 mi WNW 4.6 mph - N/A   Overcast
6:01 AM 44.6 °F 42.2 °F 44.6 °F 100% 29.81 in 7.0 mi WNW 4.6 mph - N/A   Overcast
6:53 AM 44.6 °F 42.2 °F 44.6 °F 100% 29.85 in 6.0 mi WNW 4.6 mph - N/A   Overcast
7:53 AM 45.0 °F 41.2 °F 44.1 °F 97% 29.88 in 7.0 mi WNW 6.9 mph - N/A   Overcast
8:04 AM 44.6 °F 41.4 °F 44.6 °F 100% 29.89 in 6.0 mi WNW 5.8 mph - N/A   Overcast
8:19 AM 44.6 °F 39.7 °F 44.6 °F 100% 29.90 in 8.0 mi West 9.2 mph - N/A   Overcast
8:53 AM 46.9 °F - 45.0 °F 93% 29.91 in 10.0 mi WNW 11.5 mph - N/A   Overcast
9:53 AM 48.0 °F - 43.0 °F 83% 29.94 in 10.0 mi WNW 10.4 mph 20.7 mph N/A   Overcast
10:53 AM 48.0 °F - 41.0 °F 77% 29.97 in 10.0 mi NW 11.5 mph 20.7 mph N/A   Overcast
11:53 AM 48.0 °F - 39.9 °F 74% 29.97 in 10.0 mi West 9.2 mph - N/A   Overcast
12:53 PM 48.0 °F - 39.9 °F 74% 29.96 in 10.0 mi West 13.8 mph 23.0 mph N/A   Overcast
1:53 PM 48.9 °F - 37.0 °F 64% 29.95 in 10.0 mi WNW 11.5 mph 19.6 mph N/A   Overcast
2:53 PM 46.0 °F 38.8 °F 37.0 °F 71% 29.98 in 10.0 mi WNW 18.4 mph 25.3 mph N/A   Overcast
3:53 PM 43.0 °F 35.7 °F 34.0 °F 71% 30.02 in 10.0 mi WNW 15.0 mph 25.3 mph N/A   Overcast
4:46 PM 42.8 °F 34.0 °F 30.2 °F 61% 30.04 in 10.0 mi NW 20.7 mph 27.6 mph N/A   Overcast
4:53 PM 42.1 °F 35.2 °F 30.9 °F 65% 30.05 in 10.0 mi NW 12.7 mph 28.8 mph N/A   Overcast
5:53 PM 42.1 °F 35.2 °F 30.0 °F 62% 30.07 in 10.0 mi WNW 12.7 mph 20.7 mph N/A   Overcast
6:53 PM 41.0 °F 33.1 °F 28.9 °F 62% 30.12 in 10.0 mi WNW 15.0 mph 27.6 mph N/A   Overcast
7:53 PM 39.9 °F 30.5 °F 26.1 °F 58% 30.15 in 10.0 mi NW 19.6 mph 25.3 mph N/A   Overcast
8:53 PM 39.0 °F 29.9 °F 27.0 °F 62% 30.16 in 10.0 mi NW 17.3 mph 24.2 mph N/A   Overcast
9:53 PM 39.0 °F 31.8 °F 27.0 °F 62% 30.19 in 10.0 mi NW 11.5 mph 23.0 mph N/A   Mostly Cloudy
10:53 PM 39.0 °F 30.6 °F 27.0 °F 62% 30.21 in 10.0 mi WNW 15.0 mph 20.7 mph N/A   Overcast
11:53 PM 37.9 °F 30.5 °F 27.0 °F 65% 30.22 in 10.0 mi WNW 11.5 mph 18.4 mph N/A   Overcast